Charter Quote
Worldwide +44-20-3874-8091 Call
Select Language Lang
SAFETY RELIABILITY EXPERIENCE

Lake County Airport (KLXV) - Jet Charter Services

AIRPORT INFORMATION
ICAOKLXV
IATALXV
LOCATIONLeadville, CO, United States
FACILITY TYPEAIRPORT

At Paramount Business Jets you can hire chartered private jets to and from Lake County Airport with as little as 4 hours of notice. All flights booked via Paramount Business Jets are operated by certified direct air carriers that meet and exceed the FAA part 135 and 121 protocol or a foreign equivalent safety authority. Furthermore, Paramount Business Jets subscribes to ARGUS for their third party safety checks of operators, aircraft, and crews prior each and every flight to and from Lake County Airport and worldwide.

  • Quote a trip using Lake County Airport or call us 24/7 - 365 days a year at +44-20-3874-8091.
Questions? Call +44-20-3874-8091

METAR Weather Data at Lake County Airport, KLXV, LXV

STATIONKLXV
OBSERVEDWed May 22, 08:53 UTC
NOWWed May 22, 09:44 UTC
AGE51 min ago
WINDNE at 3 mph
VISIBILITY10 miles
CLOUDSovercast
TEMP27°F (-3°C)
DEWPT23°F (-5°C)
HUMIDITY86%
BAROMETER1004 hPa (29.64 in Hg)
METARKLXV 220853Z AUTO 04003KT 10SM BKN048 OVC060 M03/M05 A2964 RMK AO2 SLP966 T10281050 53002

Call us on +44-20-3874-8091 (24 Hours) to Hire a Private Jet or Get a Quick Quote.

Find Airports Near any Location

Processing
...